Flag for Jordan Weather past 2 weeks in Amman, Jordan

Now
70 °F

Clear.


Feels Like: 70 °F
Forecast: 66 / 84 °F
Wind: 12 mph from West

Location: Amman Airport

Current Time: Aug 31, 2015 at 2:28:17 AM

Latest Report: Aug 31, 2015 at 2:00 AM


Visibility: 4 mi

Pressure: 29.95 "Hg (27.24 "Hg at 816m altitude)

Humidity: 69%

Dew point: 59 °F

Location of AmmanLocation

Historic Weather in Amman — Graph

°F

Amman temperature yesterday

Maximum temperature yesterday: 86 °F (at 3:00 PM)
Minimum temperature yesterday: 68 °F (at 6:00 AM)
Average temperature yesterday: 77 °F

Past Weeks' High & Low Weather Summary

 TemperatureHumidityPressure
High102 °F (Aug 17, 2:00 PM)88% (Aug 22, 7:00 AM)30.01 "Hg (Aug 22, 7:00 AM)
Low68 °F (Aug 23, 6:00 AM)3% (Aug 20, 12:00 PM)29.83 "Hg (Aug 22, 4:00 PM)
Average82 °F43%29.91 "Hg
* Reported Midnight between Aug 15 and Aug 16 — Midnight between Aug 30 and Aug 31, Amman, Weather by CustomWeather, © 2015

Note: Actual official high and low records may vary slightly from our data, if they occured in-between our weather recording intervals... More about our weather records

Advertising

Amman weather history for previous 24 hours

 ConditionsComfort  
Time TempWeatherWind HumidityBarometerVisibility
12:00 AM
Mon, Aug 31
72 °FHaze.9 mph65%29.95 "Hg3 mi
11:00 PM
Sun, Aug 30
72 °FHaze.3 mph65%29.95 "Hg3 mi
10:00 PM73 °FHaze.6 mph57%29.95 "Hg3 mi
9:00 PM73 °FHaze.12 mph57%29.92 "Hg3 mi
8:00 PM75 °FHaze.7 mph50%29.92 "Hg3 mi
7:00 PM79 °FHaze.8 mph45%29.92 "Hg3 mi
6:00 PM82 °FScattered clouds.12 mph35%29.92 "Hg3 mi
5:00 PM84 °FScattered clouds.9 mph33%29.92 "Hg4 mi
4:00 PM86 °FPassing clouds.9 mph33%29.92 "Hg4 mi
3:00 PM86 °FPassing clouds.9 mph31%29.92 "Hg4 mi
2:00 PM84 °FPassing clouds.9 mph25%29.95 "Hg4 mi
1:00 PM84 °FPassing clouds.7 mph29%29.95 "Hg4 mi
12:00 PM82 °FPassing clouds.9 mph35%29.95 "Hg4 mi
11:00 AM82 °FPassing clouds.7 mph35%29.95 "Hg4 mi
10:00 AM79 °FClear.5 mph37%29.95 "Hg4 mi
9:00 AM77 °FClear.7 mph44%29.95 "Hg4 mi
8:00 AM73 °FClear.7 mph65%29.95 "Hg4 mi
7:00 AM68 °FClear.9 mph78%29.92 "Hg4 mi
6:00 AM68 °FHaze.7 mph78%29.92 "Hg3 mi
5:00 AM70 °FClear.6 mph69%29.92 "Hg4 mi
4:00 AM70 °FClear.6 mph64%29.92 "Hg4 mi
3:00 AM72 °FClear.7 mph61%29.95 "Hg4 mi
2:00 AM72 °FClear.5 mph61%29.95 "Hg4 mi
Weather by CustomWeather, © 2015

See weather overviewHow to use our weather pages